Location: Roland
(31.1349°N, 85.4372°W)
Time: 21:06:25
(UTC+00:00)

Tiros 1 - Pass Details

Date: 22 April 2021
Orbit: 630 x 664 km, 48.4° (Epoch: 05 May)

Event Time Altitude Azimuth Distance (km) Brightness Sun altitude
Rises 18:53:47 0° 321° (NW) 2,918 10.5 64.8°
Reaches altitude 10° 18:56:42 10° 339° (NNW) 2,006 9.7 64.3°
Maximum altitude 19:00:00 19° 25° (NNE) 1,497 9.0 63.8°
Drops below altitude 10° 19:03:18 10° 71° (ENE) 2,003 9.5 63.3°
Sets 19:06:13 0° 89° (E) 2,911 10.3 62.8°
